Hailey, ID

7:18 AM MDT on June 28, 2017 (GMT -0600)
Friedman Memorial

Weather History for KSUN - September, 2013

Change the Weather History Date:

Monday, September 30, 2013

  Actual Average Record
Temperature  
Mean Temperature 49 °F -  
Max Temperature 57 °F 67 °F 82 °F (2010)
Min Temperature 39 °F 38 °F 28 °F (2002)
Degree Days  
Heating Degree Days 16    
Moisture  
Dew Point 42 °F    
Average Humidity 81    
Maximum Humidity 100    
Minimum Humidity 38    
Precipitation  
Precipitation 0.00 in - - ()
Sea Level Pressure  
Sea Level Pressure 29.90 in    
Wind  
Wind Speed 5 mph (South)    
Max Wind Speed 17 mph    
Max Gust Speed 34 mph    
Visibility 9 miles    
Events Rain    
Averages and records for this station are not official NWS values.
T = Trace of Precipitation, MM = Missing Value Source: NWS Daily Summary

Daily Weather History Graph

Daily Weather History Graph

Search for Another Location

Airport or City:

Trip Planner

Search our weather history database for the weather conditions in past years. The results will help you decide how hot, cold, wet, or windy it might be!

Date:

Astronomy

Sep. 30, 2013 Rise Set
Actual Time 7:33 AM MDT 7:19 PM MDT
Civil Twilight 7:05 AM MDT 7:47 PM MDT
Nautical Twilight 6:32 AM MDT 8:21 PM MDT
Astronomical Twilight 5:58 AM MDT 8:54 PM MDT
Moon 3:08 AM MDT (9/30) 4:58 PM MDT (9/30)
Length of Visible Light 12h 42m
Length of Day
11h 45m
Waning Crescent, 18% of the Moon is Illuminated
Sep 30
Waning Crescent
Oct 4
New
Oct 11
First Quarter
Oct 18
Full
Oct 26
Last Quarter

Hourly Weather History & Observations

Time (MDT) Temp. Windchill Dew Point Humidity Pressure Visibility Wind Dir Wind Speed Gust Speed Precip Events Conditions
12:15 AM 46.4 °F - 46.4 °F 100% 29.89 in 7.0 mi Calm Calm - N/A Rain Rain
12:35 AM 46.4 °F - 46.4 °F 100% 29.89 in 10.0 mi Calm Calm - N/A Rain Rain
12:55 AM 46.4 °F - 46.4 °F 100% 29.89 in 10.0 mi Calm Calm - N/A Rain Rain
1:15 AM 46.4 °F - 46.4 °F 100% 29.88 in 5.0 mi Calm Calm - N/A Rain Light Rain
1:35 AM 46.4 °F - 46.4 °F 100% 29.88 in 5.0 mi Calm Calm - N/A Rain Light Rain
1:55 AM 46.4 °F 45.2 °F 46.4 °F 100% 29.88 in 7.0 mi SE 3.5 mph - N/A Rain Light Rain
2:15 AM 46.4 °F - 46.4 °F 100% 29.88 in 10.0 mi Calm Calm - N/A Rain Rain
2:35 AM 46.4 °F 45.2 °F 46.4 °F 100% 29.88 in 7.0 mi South 3.5 mph - N/A Rain Light Rain
2:55 AM 46.4 °F 43.5 °F 46.4 °F 100% 29.87 in 10.0 mi SE 5.8 mph - N/A   Drizzle
3:15 AM 46.4 °F 42.9 °F 46.4 °F 100% 29.86 in 10.0 mi SE 6.9 mph - N/A Rain Light Rain
3:35 AM 46.4 °F 41.9 °F 46.4 °F 100% 29.85 in 10.0 mi ESE 9.2 mph - N/A   Light Drizzle
3:55 AM 46.4 °F 43.5 °F 46.4 °F 100% 29.86 in 10.0 mi SSE 5.8 mph - N/A Rain Rain
4:15 AM 46.4 °F 42.4 °F 46.4 °F 100% 29.84 in 10.0 mi SSE 8.1 mph - N/A   Light Drizzle
4:35 AM 46.4 °F 43.5 °F 46.4 °F 100% 29.84 in 10.0 mi SE 5.8 mph - N/A Rain Light Rain
4:55 AM 46.4 °F 44.3 °F 46.4 °F 100% 29.84 in 10.0 mi SE 4.6 mph - N/A Rain Rain
5:15 AM 46.4 °F 43.5 °F 46.4 °F 100% 29.83 in 10.0 mi SSE 5.8 mph - N/A   Drizzle
5:35 AM 46.4 °F 44.3 °F 46.4 °F 100% 29.84 in 10.0 mi South 4.6 mph - N/A   Drizzle
5:55 AM 46.4 °F 44.3 °F 46.4 °F 100% 29.84 in 10.0 mi SSE 4.6 mph - N/A Rain Rain
6:15 AM 48.2 °F - 46.4 °F 93% 29.84 in 10.0 mi SE 9.2 mph - N/A Rain Rain
6:35 AM 50.0 °F - 44.6 °F 82% 29.84 in 10.0 mi South 8.1 mph 21.9 mph N/A   Drizzle
6:47 AM 51.8 °F - 46.4 °F 82% 29.84 in 7.0 mi South 6.9 mph - N/A Rain Rain
6:55 AM 50.0 °F - 44.6 °F 82% 29.84 in 10.0 mi SW 5.8 mph - N/A   Drizzle
7:47 AM 50.0 °F - 46.4 °F 87% 29.83 in 10.0 mi ESE 13.8 mph - N/A   Overcast
8:47 AM 51.8 °F - 46.4 °F 82% 29.83 in 10.0 mi SE 5.8 mph - N/A   Overcast
9:47 AM 51.8 °F - 46.4 °F 82% 29.84 in 10.0 mi ESE 6.9 mph - N/A   Overcast
10:47 AM 53.6 °F - 44.6 °F 72% 29.85 in 10.0 mi SE 9.2 mph - N/A   Overcast
11:55 AM 57.2 °F - 42.8 °F 59% 29.88 in 10.0 mi SW 17.3 mph 34.5 mph N/A   Mostly Cloudy
12:47 PM 57.2 °F - 42.8 °F 59% 29.90 in 10.0 mi WNW 11.5 mph 28.8 mph N/A   Mostly Cloudy
1:47 PM 53.6 °F - 42.8 °F 67% 29.92 in 10.0 mi NNW 13.8 mph 25.3 mph N/A   Mostly Cloudy
3:47 PM 50.0 °F - 37.4 °F 62% 29.97 in 10.0 mi NW 9.2 mph - N/A Rain Light Rain
4:47 PM 53.6 °F - 35.6 °F 51% 29.96 in 10.0 mi NW 11.5 mph - N/A   Scattered Clouds
5:47 PM 55.4 °F - 30.2 °F 38% 29.97 in 10.0 mi NW 15.0 mph 28.8 mph N/A   Scattered Clouds
6:47 PM 53.6 °F - 28.4 °F 38% 29.98 in 10.0 mi NNW 10.4 mph - N/A   Partly Cloudy
7:47 PM 50.0 °F - 32.0 °F 50% 29.99 in 10.0 mi NW 5.8 mph - N/A   Clear
8:47 PM 51.8 °F - 26.6 °F 38% 30.01 in 10.0 mi NW 9.2 mph - N/A   Clear
9:47 PM 46.4 °F 43.5 °F 28.4 °F 50% 30.03 in 10.0 mi NW 5.8 mph - N/A   Clear
10:47 PM 42.8 °F 39.3 °F 30.2 °F 61% 30.03 in 10.0 mi NW 5.8 mph - N/A   Clear
11:15 PM 41.0 °F 34.7 °F 30.2 °F 65% 30.03 in 10.0 mi NNW 10.4 mph - N/A   Clear
11:35 PM 41.0 °F 35.8 °F 32.0 °F 70% 30.04 in 10.0 mi NNW 8.1 mph - N/A   Clear
11:55 PM 39.2 °F 37.0 °F 32.0 °F 75% 30.04 in 10.0 mi North 3.5 mph - N/A   Clear